Dewpoint
50 50 50 50 50 50 51 50 50 50 50 51 51 51 52 52 52 52 52 52 53 53 53 54 54 54 54 54 53 53 54 51 50 49 47 46 50 52 57 58 60 60 60 51 42 36 31 32 30 31 34 34 33 33 33 33 31 23 18 14 15 12 10 11 11 12 10 9 9 9 10 17 18 39 49 54 53 57 61 62 63 64 64 65 65 65 65 65
51 51 51 51 50 50 51 51 51 51 51 51 51 51 51 51 52 52 52 52 52 53 53 54 54 54 54 53 54 54 53 50 49 48 48 49 55 56 57 57 59 61 56 44 39 33 28 26 28 31 32 32 33 30 32 28 30 22 18 14 10 10 10 11 11 10 10 9 9 8 9 20 27 30 36 51 53 59 61 62 63 63 64 65 65 64 64 64
51 51 51 50 50 50 50 50 50 50 51 51 51 51 51 51 51 52 52 52 52 52 53 53 54 54 53 54 54 54 51 49 48 46 46 56 57 57 57 57 58 62 44 41 40 32 29 25 27 31 31 30 30 28 29 27 22 18 15 12 10 11 12 12 12 10 12 10 8 8 8 13 11 30 42 51 54 59 60 61 62 62 62 63 62 63 63 64
50 50 51 51 51 51 51 51 51 51 51 50 51 51 51 51 51 51 52 52 52 52 52 53 53 53 53 53 54 53 49 48 43 44 46 59 60 58 57 58 59 62 44 34 35 31 29 30 28 30 30 29 29 30 27 25 23 15 14 12 10 11 11 11 12 11 11 10 9 8 11 8 8 19 44 52 53 58 61 62 62 62 62 62 62 62 63 62
50 50 50 50 51 51 51 51 51 51 51 51 52 51 51 51 51 51 51 51 51 52 52 53 53 53 53 53 54 51 48 27 37 42 45 62 64 61 58 59 61 56 43 33 30 29 29 29 27 28 29 28 29 29 27 27 19 15 10 11 11 11 10 11 11 12 12 12 10 9 9 9 9 15 33 48 50 53 59 62 63 63 63 61 61 62 61 61
50 50 50 50 50 51 51 51 51 51 50 51 51 51 52 52 52 52 51 52 51 51 51 52 52 53 53 54 52 50 41 6 33 39 63 62 63 62 59 60 64 50 39 30 26 27 25 25 25 25 26 27 28 28 26 25 22 17 16 13 10 10 10 11 12 12 12 10 9 8 9 13 7 10 16 32 48 51 58 63 64 64 62 62 63 62 61 61
50 50 50 50 50 50 50 50 51 51 50 50 51 51 51 51 51 51 51 51 51 51 51 51 52 52 53 53 50 49 44 31 43 42 62 63 63 62 60 63 59 40 33 28 27 24 23 24 24 24 26 26 26 26 27 24 17 15 14 11 9 8 9 11 11 12 12 11 9 8 14 10 7 6 17 43 46 53 63 63 64 63 62 62 62 62 61 61
50 50 51 51 50 50 50 50 50 50 50 50 50 50 51 51 51 51 51 51 51 51 51 51 51 52 53 50 48 44 45 38 39 43 64 63 62 61 59 52 41 34 29 24 24 22 24 23 23 25 24 24 24 25 24 22 20 15 11 11 10 9 7 9 12 12 11 9 9 10 8 8 7 9 26 44 52 61 63 64 63 62 62 62 62 61 60 61
50 50 50 50 50 50 50 50 50 50 50 50 50 50 51 51 51 51 51 50 50 51 51 51 51 52 52 49 47 32 22 37 36 54 60 56 56 50 41 39 37 30 27 25 24 22 24 24 25 25 22 22 23 20 18 19 16 13 13 11 9 7 6 6 9 10 10 9 12 10 8 9 9 11 26 44 54 61 63 63 63 62 62 62 61 61 60 60
50 50 50 50 50 50 50 50 50 50 50 50 50 51 51 51 51 51 51 51 50 50 51 51 51 51 50 48 45 27 23 37 51 57 54 51 49 41 37 34 30 28 27 27 25 23 23 25 26 26 24 19 17 14 15 14 13 9 8 6 4 4 5 7 6 7 9 9 10 7 7 6 6 9 8 42 54 62 63 63 62 62 61 61 61 60 60 60
49 49 50 50 49 49 50 50 50 50 50 51 51 50 51 50 51 51 50 50 51 50 50 51 51 52 48 47 40 24 32 37 51 49 48 48 43 40 38 29 26 25 26 28 26 25 24 25 27 28 22 15 13 11 12 11 11 8 7 5 4 5 5 4 7 8 9 8 8 6 5 6 6 10 8 36 48 62 62 62 62 61 61 61 61 60 60 60
49 49 49 49 49 50 50 50 50 50 51 51 51 50 50 51 51 51 51 51 50 50 50 51 51 50 49 46 41 22 31 37 36 46 46 44 40 38 36 27 24 22 26 26 27 28 28 27 30 28 18 12 10 10 7 10 13 10 9 5 4 5 6 7 5 6 10 8 8 8 9 9 6 3 4 35 44 61 62 61 61 61 61 61 61 61 60 60
49 49 49 50 50 50 50 50 50 50 50 50 51 51 51 50 51 51 52 51 51 51 50 51 50 50 47 36 37 37 33 33 30 26 32 40 37 31 26 25 24 23 25 25 25 26 28 28 29 25 23 17 12 10 9 11 13 12 12 7 5 5 5 7 9 8 8 10 9 8 7 9 5 3 3 24 44 58 60 60 60 60 61 61 61 60 60 60
49 49 49 50 49 50 50 51 51 50 51 50 51 50 51 51 51 52 52 52 52 51 51 51 50 49 47 39 39 41 40 39 37 36 33 31 33 31 28 24 23 22 23 23 23 22 23 25 23 21 20 14 12 13 11 11 15 11 12 10 8 6 6 10 12 10 8 10 9 8 8 8 6 5 4 15 42 54 58 59 59 60 60 60 60 60 59 60
49 49 49 49 50 50 50 50 50 50 50 50 51 50 51 51 51 52 52 52 51 50 51 52 51 49 44 42 45 45 55 50 42 37 33 32 31 30 29 26 25 20 20 21 21 24 24 24 24 21 17 16 15 12 10 11 13 13 11 12 11 6 8 9 12 12 6 7 11 7 16 8 6 5 4 3 37 49 56 58 59 59 59 59 59 59 59 60
49 49 49 49 50 50 49 50 50 50 50 50 50 50 51 51 51 52 52 52 51 50 49 48 49 48 43 38 38 48 39 49 48 48 43 32 31 29 30 29 28 26 21 21 22 23 23 24 20 19 15 14 13 10 10 10 13 17 13 21 14 12 6 5 6 8 8 8 8 5 5 5 4 4 4 4 16 44 55 57 58 58 59 59 59 59 60 62
49 49 49 49 49 50 50 50 50 50 50 50 50 50 51 51 51 51 51 51 51 50 49 46 48 49 34 37 42 37 36 39 44 44 42 39 33 31 31 29 29 28 28 26 25 24 24 22 23 24 19 13 17 11 10 12 13 15 13 16 18 12 11 5 7 6 8 6 5 5 4 9 12 8 2 4 19 44 55 56 57 58 58 59 59 60 61 62
49 49 49 49 49 49 49 50 50 50 50 50 50 50 48 50 52 52 51 51 50 48 47 48 46 43 37 44 35 34 39 38 35 35 33 29 34 33 33 28 28 27 28 26 26 24 22 22 22 23 24 23 17 14 12 8 12 15 18 17 16 12 11 6 5 4 7 6 6 8 7 7 4 5 7 3 9 46 54 55 56 57 58 59 60 60 61 61
49 49 49 49 49 49 49 49 50 49 49 50 49 49 50 52 50 48 46 46 46 41 37 42 38 24 24 32 39 40 41 36 35 31 29 25 22 23 27 32 29 26 27 25 24 22 18 25 26 18 16 17 15 11 10 13 15 13 14 17 17 14 11 6 5 6 6 6 3 5 6 5 6 6 8 11 12 35 51 54 55 58 59 59 60 60 61 61
49 49 49 49 49 49 49 49 49 50 50 48 46 45 42 38 38 44 47 46 45 42 32 34 39 29 26 28 28 31 34 34 32 32 30 26 21 20 20 23 27 26 23 24 23 25 20 19 16 15 16 21 26 21 15 12 13 13 13 12 9 9 7 6 5 5 5 4 4 4 8 6 6 7 9 11 27 44 51 53 55 58 59 59 60 60 60 61
49 49 49 49 49 49 49 50 50 50 50 48 46 39 17 24 14 14 40 45 44 43 38 33 39 36 32 32 32 30 32 32 30 32 32 28 22 20 19 22 23 26 23 20 24 34 20 18 17 19 21 22 23 26 28 25 24 14 13 14 14 13 12 12 10 12 10 16 5 6 6 6 8 9 10 12 29 48 52 53 55 58 59 59 59 59 59 60
48 49 49 49 49 49 49 49 50 50 50 47 45 38 35 30 12 17 20 17 24 42 41 38 36 38 37 34 32 33 36 32 32 31 26 23 22 18 23 23 21 20 22 23 23 20 18 15 18 19 20 24 27 28 30 27 24 21 17 14 15 14 13 13 17 16 17 22 13 9 5 4 7 10 10 11 17 46 53 53 55 57 58 58 59 58 59 59
48 48 49 48 49 49 49 49 49 49 47 46 43 41 36 31 29 30 28 22 22 28 36 37 37 37 36 37 37 37 34 33 29 27 23 20 23 19 24 23 20 18 20 24 18 21 18 14 17 16 23 25 25 27 28 30 32 24 22 20 17 15 14 13 23 19 22 18 15 12 7 9 10 12 11 17 20 48 54 54 56 58 58 58 58 58 58 58
48 48 48 49 49 49 49 49 48 46 45 44 42 39 36 35 35 34 34 30 26 24 27 28 33 32 32 30 33 32 30 29 28 26 27 19 21 22 22 24 21 17 14 16 16 16 13 13 15 20 23 22 22 23 26 26 21 27 26 19 15 13 14 15 18 24 26 20 30 14 16 12 20 9 9 16 29 47 54 54 56 57 58 59 58 58 58 57
48 48 48 48 48 49 48 48 44 45 42 42 43 42 39 39 38 35 32 30 33 31 28 25 23 21 23 31 33 31 30 29 27 25 25 21 24 23 22 22 21 17 16 13 14 13 13 14 23 14 16 19 21 19 23 27 22 22 29 23 19 18 19 21 24 19 19 16 27 7 12 8 24 29 12 19 23 46 52 54 55 57 58 58 57 57 57 57
48 48 48 48 48 48 48 43 43 43 41 35 28 28 34 38 35 39 35 33 27 32 31 23 22 22 21 24 28 27 29 26 27 27 25 24 28 24 23 20 18 14 13 12 11 16 13 17 21 16 18 16 14 16 17 26 21 22 23 29 23 20 24 24 18 20 15 10 22 25 11 8 24 16 18 23 20 38 49 53 53 56 57 57 57 57 57 57
47 47 48 48 48 48 43 37 44 43 33 23 27 36 39 40 39 41 28 26 25 33 30 24 23 19 21 20 24 24 21 21 25 24 25 28 25 25 21 19 17 16 12 19 13 6 10 9 15 17 20 16 17 15 18 23 21 19 28 25 19 18 22 23 18 19 15 28 28 31 22 14 13 20 27 24 22 26 41 46 52 56 57 56 57 57 57 58
47 47 47 47 47 47 45 45 44 40 36 32 37 39 41 42 40 42 31 18 3 22 35 20 21 26 23 18 21 21 24 24 21 21 23 26 26 24 20 17 11 12 10 11 7 15 24 17 18 16 19 17 14 15 18 23 20 22 29 22 18 17 21 18 14 14 19 20 12 22 25 16 17 24 28 22 17 34 41 46 53 56 56 56 57 57 57 57
47 47 47 47 48 48 47 46 44 41 40 40 41 41 42 43 40 32 29 15 21 26 25 21 31 24 26 18 18 20 22 23 20 22 23 25 25 22 21 20 13 10 11 10 10 23 19 14 10 11 16 17 16 15 17 24 20 20 21 20 20 19 16 15 14 10 20 13 12 20 28 14 17 27 23 26 19 31 46 51 54 55 56 56 56 56 57 57
48 47 47 48 47 45 44 45 44 43 42 43 43 42 44 39 33 26 19 11 28 20 23 24 24 25 22 16 17 19 19 20 21 22 24 22 23 21 23 20 18 18 16 16 14 14 14 21 24 12 11 15 19 19 19 21 19 25 17 16 13 12 15 19 19 14 18 10 14 25 30 16 13 25 26 23 25 27 51 53 55 55 55 56 56 56 56 57
48 48 48 48 45 44 43 40 41 44 45 44 41 42 36 33 28 21 17 20 25 19 23 23 24 26 19 16 17 18 19 22 22 19 22 24 24 24 24 22 21 23 20 22 18 15 14 12 10 13 16 15 17 17 17 17 16 14 15 13 14 15 23 17 21 19 10 12 22 25 25 18 15 22 29 33 35 47 52 52 54 54 54 55 55 56 56 55
48 48 48 47 46 46 43 34 36 40 39 42 44 39 26 16 23 21 19 29 22 22 16 14 14 23 25 19 21 19 18 21 22 17 21 22 25 22 23 23 24 18 17 16 15 23 19 12 11 13 30 13 16 14 13 10 10 10 13 14 13 14 13 12 13 4 6 11 17 23 19 18 18 24 34 37 39 39 52 53 54 54 54 55 55 55 55 54
48 48 49 48 48 46 46 44 42 43 44 45 42 35 23 17 10 22 22 23 25 19 19 17 13 10 31 23 21 22 22 21 25 20 21 23 23 22 23 22 21 21 15 26 18 16 15 20 13 12 14 18 13 13 13 10 11 8 8 16 12 8 8 6 14 13 13 15 22 22 22 17 32 33 36 38 42 48 52 53 54 54 54 54 54 54 53 53
48 48 46 46 47 47 47 47 46 45 45 46 32 29 23 9 13 38 20 20 18 17 16 12 5 6 14 23 21 22 21 23 18 17 19 24 23 24 23 21 18 20 22 21 12 17 8 9 14 13 14 15 11 11 10 18 20 8 10 10 16 19 14 6 12 7 8 10 20 28 15 14 28 34 37 42 47 50 52 52 54 54 54 54 54 53 53 53
48 48 46 46 47 47 47 46 46 48 46 40 28 25 16 16 23 24 27 22 19 17 11 8 5 6 11 12 26 20 20 22 22 21 19 22 24 25 24 21 19 19 19 13 24 16 11 15 17 14 11 13 11 12 12 11 12 17 15 15 17 14 23 11 19 20 19 14 15 17 15 28 34 43 44 47 48 49 51 53 54 54 54 54 54 53 53 54
47 44 45 47 49 50 47 47 46 47 44 34 24 19 15 21 20 23 19 17 12 10 9 6 7 8 12 15 20 24 34 27 43 28 26 22 23 23 22 19 19 18 18 18 24 10 16 14 22 17 11 11 11 12 13 11 13 23 10 12 13 20 18 19 20 25 18 15 13 20 28 32 35 37 39 47 49 50 52 53 53 53 54 54 53 53 53 53
44 45 44 49 49 49 47 47 47 47 43 34 23 15 24 24 21 17 21 13 15 14 6 4 11 8 15 13 18 21 32 34 41 27 24 26 28 31 22 25 19 17 16 17 19 18 14 16 22 16 14 13 11 11 12 11 18 18 15 14 19 26 24 17 14 19 15 11 17 24 26 28 27 28 43 45 47 49 50 52 52 53 53 53 53 53 53 54
44 44 46 46 45 48 47 47 47 45 39 32 25 34 32 25 21 19 19 17 16 11 6 10 17 11 13 9 12 12 34 22 32 30 36 32 31 36 33 29 31 27 27 20 14 24 18 12 16 19 17 22 22 11 13 12 17 10 14 19 14 15 8 24 21 12 10 9 10 22 29 29 28 32 37 43 47 49 50 51 51 51 52 52 53 54 55 55
45 45 42 40 45 48 47 47 46 41 35 29 24 24 31 25 23 20 17 15 14 11 9 7 11 15 10 9 17 13 21 22 30 28 24 34 25 35 36 35 33 29 29 24 17 24 25 13 18 25 21 28 23 18 19 22 19 14 13 23 29 27 26 15 17 24 20 17 12 15 26 22 35 35 38 41 45 49 50 50 50 50 52 53 54 55 55 55
45 42 41 45 46 48 49 47 43 38 33 28 27 28 26 25 24 22 19 15 12 11 14 8 5 9 6 12 12 17 24 29 27 33 24 35 32 36 37 41 33 29 30 30 23 29 20 20 14 24 24 19 24 25 22 20 21 22 19 18 20 26 35 24 28 18 18 20 17 17 15 25 34 41 41 41 45 49 50 50 51 51 52 53 54 54 55 55
44 40 40 47 45 44 44 42 37 34 32 34 34 32 31 29 27 27 27 25 24 18 12 9 8 7 13 14 14 13 15 25 29 30 29 35 31 29 37 36 35 37 32 33 29 32 23 21 20 27 19 22 29 33 23 25 25 26 23 25 22 23 18 13 18 28 23 23 19 18 15 27 37 46 46 46 47 48 50 51 51 51 52 52 53 53 54 54
40 35 39 46 48 43 41 36 36 37 34 33 32 31 29 34 29 28 28 28 26 23 19 11 9 12 21 21 19 17 15 16 24 30 29 30 35 33 35 34 32 33 38 28 31 36 28 28 25 19 20 22 25 25 25 28 30 30 30 29 29 30 28 23 18 21 25 25 27 25 28 28 41 47 47 48 49 49 50 50 51 52 52 53 53 54 54 55
40 38 43 47 48 44 38 32 34 32 31 33 33 32 32 31 30 28 27 26 26 25 20 18 19 20 24 18 20 17 16 19 16 29 33 34 34 32 36 33 33 33 37 38 30 35 46 23 22 23 28 30 28 27 28 27 28 30 32 35 33 29 29 23 26 28 23 24 20 22 26 30 40 47 48 49 49 49 50 50 51 52 52 52 52 53 53 54
38 39 41 44 47 43 37 27 28 27 32 35 35 33 33 32 30 27 27 28 28 29 24 22 20 20 21 18 20 18 17 18 21 25 25 31 31 35 36 34 33 32 36 38 29 35 25 30 23 22 22 26 25 24 24 29 29 30 31 35 36 35 35 33 31 29 20 24 24 22 19 31 40 46 47 48 49 49 50 50 51 51 51 51 52 53 53 54
39 41 42 42 42 41 33 35 31 27 31 34 34 32 33 34 32 32 31 29 30 27 25 22 19 19 22 22 21 20 19 21 25 23 24 31 29 30 34 33 34 36 41 44 42 36 31 29 26 19 17 13 11 13 18 24 31 29 33 35 36 36 36 27 18 23 19 23 26 25 30 37 45 46 47 48 49 49 50 50 51 51 50 50 51 52 53 53
36 24 30 32 36 36 36 37 36 33 30 33 27 32 33 32 32 31 32 31 28 31 29 21 25 27 27 25 24 27 29 31 29 29 30 30 28 27 32 36 39 38 45 46 43 41 32 34 29 26 23 22 24 26 29 31 34 31 34 35 36 37 37 33 29 25 21 22 24 32 38 39 42 43 45 46 47 47 48 49 49 50 50 50 51 51 52 52
38 28 28 25 33 31 33 34 34 35 30 34 27 33 32 33 32 32 34 30 32 30 30 29 28 29 29 29 29 28 29 30 31 32 32 34 31 32 31 34 37 46 46 43 43 37 36 30 35 33 30 28 28 27 28 30 30 35 33 35 36 36 36 36 31 27 31 26 24 36 40 39 40 44 44 45 46 47 47 48 48 49 50 50 50 48 47 46
28 29 34 33 28 25 27 28 33 35 36 36 29 35 32 31 30 28 35 35 34 28 28 27 28 26 25 29 31 24 28 32 28 29 32 31 34 32 31 34 35 40 39 38 42 39 36 29 34 35 33 31 28 27 26 26 29 32 33 34 35 37 37 35 34 36 33 26 28 38 40 39 42 44 46 46 46 47 47 48 47 44 44 43 42 41 41 40
34 34 35 36 29 32 31 30 35 34 31 33 34 34 31 30 30 30 36 35 31 28 25 23 28 26 23 24 30 26 26 25 24 33 33 29 34 33 33 36 34 36 35 39 41 42 35 32 37 37 33 30 31 33 31 27 29 33 35 35 36 37 38 38 38 38 38 37 39 39 37 35 38 42 43 44 44 43 40 39 39 39 39 39 38 38 38 39
32 32 31 36 34 32 32 30 31 31 28 33 28 30 32 29 31 32 33 35 27 30 26 27 23 29 24 23 26 25 25 27 25 23 33 29 28 34 32 32 34 39 39 40 40 40 34 30 37 37 33 33 35 36 30 31 32 32 32 33 34 36 38 39 38 37 37 36 37 37 35 34 39 40 37 37 37 37 36 35 35 35 36 36 35 35 36 37
34 38 36 33 30 31 30 29 29 28 26 29 27 28 36 30 31 35 33 35 34 31 30 28 25 29 26 24 24 26 25 25 27 27 29 29 24 36 27 32 36 34 41 40 41 38 37 30 35 32 29 29 34 34 33 33 32 32 32 32 33 33 32 34 35 37 36 35 35 35 34 33 38 40 34 34 35 34 33 33 33 33 33 33 33 34 34 35
36 36 40 35 29 35 23 28 28 27 24 26 27 28 32 33 30 29 28 30 28 33 33 28 31 27 28 27 24 24 23 22 22 21 22 23 24 23 25 25 31 35 37 39 41 34 38 32 31 31 30 28 35 33 33 30 29 28 30 32 33 33 37 38 39 38 37 37 34 34 32 37 39 41 34 34 34 34 34 33 32 32 33 33 34 35 35 35